Home > Weather > Colchester > Past weeks

Flag for United Kingdom Past Weather in Colchester, England, United Kingdom — Yesterday and Last 2 Weeks

Now
54 °F

Partly sunny.


Feels Like: 49 °F
Forecast: 51 / 57 °F
Wind: 15 mph from North

Location: Cranfield

Current Time: May 30, 2016 at 9:52:00 AM

Latest Report: May 30, 2016 at 9:20 AM


Visibility: 5 mi

Pressure: 30.04 "Hg

Humidity: 88%

Dew Point: 50 °F

Location of ColchesterLocation

Past Weather in Colchester — Graph

°F

Colchester Temperature Yesterday

Maximum temperature yesterday: 64 °F (at 3:20 PM)
Minimum temperature yesterday: 48 °F (at 8:20 AM)
Average temperature yesterday: 56 °F

High & Low Weather Summary for the Past Weeks

 TemperatureHumidityPressure
High66 °F (May 28, 3:50 PM)100% (May 29, 8:20 AM)30.18 "Hg (May 29, 8:20 AM)
Low46 °F (May 16, 7:20 AM)51% (May 15, 12:20 PM)29.56 "Hg (May 18, 1:50 PM)
Average58 °F73%29.97 "Hg
* Reported May 15 8:50 AM — May 30 8:50 AM, Colchester, Weather by CustomWeather, © 2016

Note: Actual official high and low records may vary slightly from our data, if they occured in-between our weather recording intervals... More about our weather records

Advertising

Colchester Weather History for the Previous 24 Hours

Scroll right to see more
 ConditionsComfort  
Time TempWeatherWind HumidityBarometerVisibility
8:50 AM
Mon, May 30
52 °FPartly sunny.14 mph94%30.01 "Hg4 mi
8:20 AM54 °FPartly sunny.12 mph88%30.01 "Hg4 mi
5:20 PM
Sun, May 29
63 °FScattered clouds.13 mph73%29.95 "HgN/A
4:50 PM64 °FScattered clouds.13 mph68%29.95 "HgN/A
3:50 PM63 °FScattered clouds.14 mph73%29.95 "HgN/A
3:20 PM64 °FScattered clouds.12 mph68%29.95 "HgN/A
2:50 PM63 °FPartly sunny.13 mph73%29.95 "HgN/A
2:20 PM61 °FPartly sunny.13 mph77%29.95 "HgN/A
1:50 PM59 °FPartly sunny.12 mph77%29.95 "HgN/A
1:20 PM57 °FPartly sunny.12 mph82%29.95 "HgN/A
12:50 PM57 °FPartly sunny.9 mph82%29.95 "Hg5 mi
12:20 PM55 °FPartly sunny.12 mph88%29.95 "HgN/A
11:50 AM54 °FPartly sunny.9 mph88%29.95 "HgN/A
11:20 AM54 °FCool.1 mph88%29.95 "HgN/A
10:50 AM52 °FPartly sunny.10 mph94%29.95 "Hg4 mi
10:20 AM52 °FPartly sunny.10 mph88%29.95 "Hg4 mi
9:50 AM50 °FPartly sunny.12 mph94%29.95 "Hg4 mi
9:20 AM50 °FLow clouds.10 mph94%29.95 "Hg4 mi
Weather by CustomWeather, © 2016

See weather overviewHow to use our weather pages